Waarnemingen

Advertentie
Mijn weer
Murcia/Alcantarilla, Spanje (8429): temperatuur & dauwpunt: 11.01.2019 01:00:00 - 17.01.2019 01:00:00 (CET)Murcia/Alcantarilla, Spanje (8429): windsnelheid: 11.01.2019 01:00:00 - 17.01.2019 01:00:00 (CET)Murcia/Alcantarilla, Spanje (8429): windrichting: 11.01.2019 01:00:00 - 17.01.2019 01:00:00 (CET)Murcia/Alcantarilla, Spanje (8429): luchtdruk: 11.01.2019 01:00:00 - 17.01.2019 01:00:00 (CET)Murcia/Alcantarilla, Spanje (8429): zicht: 11.01.2019 01:00:00 - 17.01.2019 01:00:00 (CET)
Datum & Tijd tt [°C] td [°C] ff [km/u] ff [kn] dd ppp [hPa] vv [km]
17.01.2019 01:00:00 - - - - - - -
17.01.2019 00:00:00 - - - - - - -
16.01.2019 23:00:00 - - - - - - -
16.01.2019 22:00:00 - - - - - - -
16.01.2019 21:00:00 - - - - - - -
16.01.2019 20:00:00 - - - - - - -
16.01.2019 19:00:00 11,4 8,6 8 4 ZW 1017,3 15
16.01.2019 18:00:00 - - - - - - -
16.01.2019 17:00:00 - - - - - - -
16.01.2019 16:00:00 16,8 6,0 5 3 ZZO 1017,4 15
16.01.2019 15:00:00 - - - - - - -
16.01.2019 14:00:00 - - - - - - -
16.01.2019 13:00:00 13,3 7,7 4 2 N 1019,7 10
16.01.2019 12:00:00 - - - - - - -
16.01.2019 11:00:00 - - - - - - -
16.01.2019 10:00:00 8,4 6,7 2 1 N 1021,2 12
16.01.2019 09:00:00 - - - - - - -
16.01.2019 08:00:00 - - - - - - -
16.01.2019 07:00:00 7,0 6,6 0 0 N 1020,9 10
16.01.2019 06:00:00 - - - - - - -
16.01.2019 05:00:00 - - - - - - -
16.01.2019 04:00:00 - - - - - - -
16.01.2019 03:00:00 - - - - - - -
16.01.2019 02:00:00 - - - - - - -
16.01.2019 01:00:00 - - - - - - -
16.01.2019 00:00:00 - - - - - - -
15.01.2019 23:00:00 - - - - - - -
15.01.2019 22:00:00 - - - - - - -
15.01.2019 21:00:00 - - - - - - -
15.01.2019 20:00:00 - - - - - - -
15.01.2019 19:00:00 12,5 9,1 5 3 ZO 1021,4 30
15.01.2019 18:00:00 - - - - - - -
15.01.2019 17:00:00 - - - - - - -
15.01.2019 16:00:00 16,4 7,6 9 5 O 1021,1 30
15.01.2019 15:00:00 - - - - - - -
15.01.2019 14:00:00 - - - - - - -
15.01.2019 13:00:00 13,8 3,0 5 3 O 1022,6 30
15.01.2019 12:00:00 - - - - - - -
15.01.2019 11:00:00 - - - - - - -
15.01.2019 10:00:00 5,4 2,4 0 0 N 1023,3 30
15.01.2019 09:00:00 - - - - - - -
15.01.2019 08:00:00 - - - - - - -
15.01.2019 07:00:00 1,2 0,3 0 0 N 1022,1 30
15.01.2019 06:00:00 - - - - - - -
15.01.2019 05:00:00 - - - - - - -
15.01.2019 04:00:00 - - - - - - -
15.01.2019 03:00:00 - - - - - - -
15.01.2019 02:00:00 - - - - - - -
15.01.2019 01:00:00 - - - - - - -
15.01.2019 00:00:00 - - - - - - -
14.01.2019 23:00:00 - - - - - - -
14.01.2019 22:00:00 - - - - - - -
14.01.2019 21:00:00 - - - - - - -
14.01.2019 20:00:00 - - - - - - -
14.01.2019 19:00:00 15,5 3,6 4 2 N 1017,9 40
14.01.2019 18:00:00 - - - - - - -
14.01.2019 17:00:00 - - - - - - -
14.01.2019 16:00:00 21,6 0,2 13 7 N 1017,7 50
14.01.2019 15:00:00 - - - - - - -
14.01.2019 14:00:00 - - - - - - -
14.01.2019 13:00:00 19,5 3,2 5 3 N 1019,3 50
14.01.2019 12:00:00 - - - - - - -
14.01.2019 11:00:00 - - - - - - -
14.01.2019 10:00:00 11,2 -4,9 9 5 W 1021,5 40
14.01.2019 09:00:00 - - - - - - -
14.01.2019 08:00:00 - - - - - - -
14.01.2019 07:00:00 3,2 -0,4 5 3 ZZW 1022,4 40
14.01.2019 06:00:00 - - - - - - -
14.01.2019 05:00:00 - - - - - - -
14.01.2019 04:00:00 - - - - - - -
14.01.2019 03:00:00 - - - - - - -
14.01.2019 02:00:00 - - - - - - -
14.01.2019 01:00:00 - - - - - - -
14.01.2019 00:00:00 - - - - - - -
13.01.2019 23:00:00 - - - - - - -
13.01.2019 22:00:00 - - - - - - -
13.01.2019 21:00:00 - - - - - - -
13.01.2019 20:00:00 - - - - - - -
13.01.2019 19:00:00 12,1 3,3 11 6 WZW 1024,2 50
13.01.2019 18:00:00 - - - - - - -
13.01.2019 17:00:00 - - - - - - -
13.01.2019 16:00:00 17,4 -0,3 5 3 OZO 1023,7 50
13.01.2019 15:00:00 - - - - - - -
13.01.2019 14:00:00 - - - - - - -
13.01.2019 13:00:00 14,2 -0,6 5 3 WNW 1026,1 50
13.01.2019 12:00:00 - - - - - - -
13.01.2019 11:00:00 - - - - - - -
13.01.2019 10:00:00 4,4 -0,2 5 3 ZZW 1028,4 50
13.01.2019 09:00:00 - - - - - - -
13.01.2019 08:00:00 - - - - - - -
13.01.2019 07:00:00 0,9 -2,0 15 8 ZW 1027,9 30
13.01.2019 06:00:00 - - - - - - -
13.01.2019 05:00:00 - - - - - - -
13.01.2019 04:00:00 - - - - - - -
13.01.2019 03:00:00 - - - - - - -
13.01.2019 02:00:00 - - - - - - -
13.01.2019 01:00:00 - - - - - - -
13.01.2019 00:00:00 - - - - - - -
12.01.2019 23:00:00 - - - - - - -
12.01.2019 22:00:00 - - - - - - -
12.01.2019 21:00:00 - - - - - - -
12.01.2019 20:00:00 - - - - - - -
12.01.2019 19:00:00 8,5 -0,3 5 3 W 1029,0 40
12.01.2019 18:00:00 - - - - - - -
12.01.2019 17:00:00 - - - - - - -
12.01.2019 16:00:00 12,9 -3,4 4 2 N 1028,3 40
12.01.2019 15:00:00 - - - - - - -
12.01.2019 14:00:00 - - - - - - -
12.01.2019 13:00:00 10,1 -3,9 4 2 N 1030,0 30
12.01.2019 12:00:00 - - - - - - -
12.01.2019 11:00:00 - - - - - - -
12.01.2019 10:00:00 0,5 0,5 5 3 Z 1031,5 10
12.01.2019 09:00:00 - - - - - - -
12.01.2019 08:00:00 - - - - - - -
12.01.2019 07:00:00 -2,1 -3,4 0 0 N 1029,4 10
12.01.2019 06:00:00 - - - - - - -
12.01.2019 05:00:00 - - - - - - -
12.01.2019 04:00:00 - - - - - - -
12.01.2019 03:00:00 - - - - - - -
12.01.2019 02:00:00 - - - - - - -
12.01.2019 01:00:00 - - - - - - -
12.01.2019 00:00:00 - - - - - - -
11.01.2019 23:00:00 - - - - - - -
11.01.2019 22:00:00 - - - - - - -
11.01.2019 21:00:00 - - - - - - -
11.01.2019 20:00:00 - - - - - - -
11.01.2019 19:00:00 6,4 -2,2 9 5 ZW 1026,3 50
11.01.2019 18:00:00 - - - - - - -
11.01.2019 17:00:00 - - - - - - -
11.01.2019 16:00:00 11,4 -7,4 0 0 N 1025,4 50
11.01.2019 15:00:00 - - - - - - -
11.01.2019 14:00:00 - - - - - - -
11.01.2019 13:00:00 10,5 -8,2 4 2 N 1026,2 50
11.01.2019 12:00:00 - - - - - - -
11.01.2019 11:00:00 - - - - - - -
11.01.2019 10:00:00 4,4 -6,2 0 0 N 1025,9 50
11.01.2019 09:00:00 - - - - - - -
11.01.2019 08:00:00 - - - - - - -
11.01.2019 07:00:00 1,7 -5,7 2 1 N 1024,0 50
11.01.2019 06:00:00 - - - - - - -
11.01.2019 05:00:00 - - - - - - -
11.01.2019 04:00:00 - - - - - - -
11.01.2019 03:00:00 - - - - - - -
11.01.2019 02:00:00 - - - - - - -
11.01.2019 01:00:00 - - - - - - -

tt = temperatuur
td = dauwpunt
ff = windsnelheid
dd = windrichting
ppp = luchtdruk
vv = zicht

Weerstations in de omgeving